Weather History for Mildenhall RAF, United Kingdom

Change the Weather History Date:

Thursday, October 10, 2013

  Actual Average (EGSC) Record (EGSC)
Temperature  
Mean Temperature 48 °F -  
Max Temperature 53 °F 59 °F 71 °F (2005)
Min Temperature 44 °F 48 °F 39 °F (2012)
Degree Days  
Heating Degree Days 16    
Moisture  
Dew Point 39 °F    
Average Humidity 73    
Maximum Humidity 84    
Minimum Humidity 56    
Precipitation  
Precipitation 0.21 in - - ()
Sea Level Pressure  
Sea Level Pressure 30.02 in    
Wind  
Wind Speed 18 mph ()    
Max Wind Speed 30 mph    
Max Gust Speed 40 mph    
Visibility 6.2 miles    
Events Rain    
Averages and records for this station are not official NWS values.
T = Trace of Precipitation, MM = Missing Value Source: Averaged Metar Reports

Daily Weather History Graph

Daily Weather History Graph

Search for Another Location

Airport:

Trip Planner

Search our weather history database for the weather conditions in past years. The results will help you decide how hot, cold, wet, or windy it might be!

Date:

Astronomy

Oct. 10, 2013 Rise Set
Actual Time 7:14 AM BST 6:14 PM BST
Civil Twilight 6:40 AM BST 6:48 PM BST
Nautical Twilight 6:01 AM BST 7:27 PM BST
Astronomical Twilight 5:21 AM BST 8:07 PM BST
Moon 1:22 PM BST (10/10) 10:06 PM BST (10/10)
Length of Visible Light 12h 07m
Length of Day
10h 59m
Waxing Crescent, 33% of the Moon is Illuminated
Oct 10
Waxing Crescent
Oct 12
First Quarter
Oct 19
Full
Oct 27
Last Quarter
Nov 3
New

Hourly Weather History & Observations

Time (BST) Temp. Windchill Dew Point Humidity Pressure Visibility Wind Dir Wind Speed Gust Speed Precip Events Conditions
12:42 AM 46.4 °F 39.2 °F 32.0 °F 57% 29.95 in 6.2 mi NW 18.4 mph 24.2 mph N/A   Mostly Cloudy
12:58 AM 46.9 °F - 33.3 °F 59% 29.96 in 6.2 mi NW 16.1 mph 23.0 mph N/A   Mostly Cloudy
1:58 AM 47.7 °F - 32.7 °F 56% 29.96 in 6.2 mi NW 16.1 mph 23.0 mph N/A   Overcast
2:58 AM 47.8 °F - 33.1 °F 57% 29.95 in 6.2 mi NW 20.7 mph 26.5 mph N/A   Overcast
3:31 AM 46.4 °F 40.4 °F 32.0 °F 57% 29.94 in 6.2 mi NW 13.8 mph 21.9 mph N/A   Mostly Cloudy
3:58 AM 46.2 °F 39.0 °F 34.2 °F 63% 29.96 in 6.2 mi NW 18.4 mph 24.2 mph N/A   Mostly Cloudy
3:59 AM 46.4 °F 39.8 °F 33.8 °F 62% 29.95 in 6.2 mi NW 16.1 mph 24.2 mph N/A   Mostly Cloudy
4:25 AM 46.4 °F 39.8 °F 33.8 °F 62% 29.95 in 6.2 mi NW 16.1 mph 24.2 mph N/A   Mostly Cloudy
4:53 AM 46.4 °F 38.5 °F 35.6 °F 66% 29.95 in 6.2 mi NW 21.9 mph 29.9 mph N/A Rain Light Rain
4:58 AM 46.8 °F - 35.6 °F 65% 29.96 in 6.2 mi NW 18.4 mph 29.9 mph 0.00 in Rain Light Rain
5:13 AM 46.4 °F 39.2 °F 37.4 °F 71% 29.95 in 6.2 mi NW 18.4 mph 26.5 mph N/A Rain Light Rain
5:14 AM 46.4 °F 39.0 °F 37.4 °F 71% 29.95 in 6.2 mi NW 19.6 mph 26.5 mph N/A   Overcast
5:15 AM 46.4 °F 38.7 °F 37.4 °F 71% 29.95 in 6.2 mi NW 20.7 mph 27.6 mph N/A   Overcast
5:20 AM 46.4 °F 39.5 °F 37.4 °F 71% 29.95 in 6.2 mi NW 17.3 mph 27.6 mph N/A   Overcast
5:22 AM 46.4 °F 37.9 °F 37.4 °F 71% 29.95 in 6.2 mi NW 25.3 mph 29.9 mph N/A Rain Light Rain
5:37 AM 44.6 °F 36.1 °F 37.4 °F 76% 29.95 in 6.2 mi NW 21.9 mph 29.9 mph N/A Rain Light Rain
5:58 AM 45.3 °F 37.1 °F 38.5 °F 77% 29.97 in 6.2 mi NW 21.9 mph 29.9 mph 0.00 in Rain Light Rain
6:06 AM 44.6 °F 36.6 °F 37.4 °F 76% 29.95 in 6.2 mi NW 19.6 mph 31.1 mph N/A   Overcast
6:09 AM 44.6 °F 35.9 °F 37.4 °F 76% 29.96 in 6.2 mi NW 23.0 mph 31.1 mph N/A Rain Rain
6:34 AM 44.6 °F 35.9 °F 39.2 °F 81% 29.96 in 6.2 mi NW 23.0 mph 31.1 mph N/A   Overcast
6:36 AM 44.6 °F 36.4 °F 39.2 °F 81% 29.96 in 6.2 mi NW 20.7 mph 31.1 mph N/A Rain Light Rain
6:42 AM 44.6 °F 35.9 °F 39.2 °F 81% 29.96 in 6.2 mi NW 23.0 mph 31.1 mph N/A Rain Light Rain
6:43 AM 44.6 °F 36.1 °F 39.2 °F 81% 29.96 in 6.2 mi NW 21.9 mph 31.1 mph N/A Rain Light Rain
6:45 AM 44.6 °F 35.9 °F 39.2 °F 81% 29.96 in 6.2 mi NW 23.0 mph 31.1 mph N/A Rain Light Rain
6:58 AM 44.8 °F 36.9 °F 38.8 °F 80% 29.98 in 6.2 mi NW 19.6 mph 31.1 mph 0.02 in Rain Light Rain
7:03 AM 44.6 °F 36.4 °F 39.2 °F 81% 29.97 in 6.2 mi NW 20.7 mph 35.7 mph N/A Rain Light Rain
7:04 AM 44.6 °F 36.4 °F 39.2 °F 81% 29.97 in 6.2 mi NW 20.7 mph 35.7 mph N/A Rain Light Rain
7:07 AM 44.6 °F 36.1 °F 39.2 °F 81% 29.97 in 6.2 mi NW 21.9 mph 35.7 mph N/A   Overcast
7:12 AM 44.6 °F 36.6 °F 39.2 °F 81% 29.97 in 6.2 mi NW 19.6 mph 33.4 mph N/A   Overcast
7:13 AM 44.6 °F 36.4 °F 39.2 °F 81% 29.97 in 6.2 mi NW 20.7 mph 33.4 mph N/A Rain Light Rain
7:24 AM 44.6 °F 36.1 °F 39.2 °F 81% 29.98 in 6.2 mi NW 21.9 mph 31.1 mph N/A Rain Light Rain
7:27 AM 44.6 °F 37.2 °F 39.2 °F 81% 29.98 in 6.2 mi NNW 17.3 mph 31.1 mph N/A Rain Light Rain
7:33 AM 44.6 °F 36.4 °F 39.2 °F 81% 29.98 in 6.2 mi NW 20.7 mph 23.0 mph N/A Rain Light Rain
7:37 AM 44.6 °F 36.9 °F 39.2 °F 81% 29.98 in 6.2 mi NW 18.4 mph 24.2 mph N/A   Overcast
7:42 AM 44.6 °F 36.6 °F 39.2 °F 81% 29.98 in 6.2 mi NW 19.6 mph 25.3 mph N/A Rain Light Rain
7:46 AM 44.6 °F 36.6 °F 39.2 °F 81% 29.98 in 6.2 mi NW 19.6 mph 28.8 mph N/A Rain Light Rain
7:58 AM 45.0 °F 37.4 °F 38.8 °F 79% 29.99 in 6.2 mi NW 18.4 mph 28.8 mph 0.02 in Rain Light Rain
7:59 AM 44.6 °F 36.6 °F 39.2 °F 81% 29.98 in 6.2 mi NW 19.6 mph 28.8 mph N/A Rain Light Rain
8:06 AM 44.6 °F 36.9 °F 39.2 °F 81% 29.99 in 6.2 mi NNW 18.4 mph 29.9 mph N/A   Overcast
8:10 AM 44.6 °F 36.9 °F 37.4 °F 76% 29.99 in 6.2 mi NNW 18.4 mph 29.9 mph N/A   Overcast
8:11 AM 44.6 °F 36.6 °F 37.4 °F 76% 29.99 in 6.2 mi NNW 19.6 mph 29.9 mph N/A Rain Light Rain
8:47 AM 44.6 °F 36.9 °F 37.4 °F 76% 30.01 in 6.2 mi NNW 18.4 mph 25.3 mph N/A   Mostly Cloudy
8:58 AM 45.0 °F 37.4 °F 37.8 °F 76% 30.02 in 6.2 mi NW 18.4 mph 25.3 mph 0.01 in   Mostly Cloudy
9:01 AM 44.6 °F 37.8 °F 37.4 °F 76% 30.01 in 6.2 mi NNW 15.0 mph 23.0 mph N/A   Scattered Clouds
9:04 AM 44.6 °F 37.2 °F 37.4 °F 76% 30.02 in 6.2 mi NNW 17.3 mph 25.3 mph N/A   Mostly Cloudy
9:08 AM 46.4 °F 39.5 °F 37.4 °F 71% 30.02 in 6.2 mi NNW 17.3 mph 25.3 mph N/A   Mostly Cloudy
9:09 AM 46.4 °F 39.5 °F 37.4 °F 71% 30.02 in 6.2 mi NNW 17.3 mph 25.3 mph N/A Rain Light Rain
9:22 AM 46.4 °F 39.5 °F 39.2 °F 76% 30.02 in 6.2 mi NW 17.3 mph 25.3 mph N/A   Mostly Cloudy
9:27 AM 46.4 °F 39.2 °F 37.4 °F 71% 30.02 in 6.2 mi NW 18.4 mph 27.6 mph N/A Rain Light Rain
9:34 AM 46.4 °F 39.2 °F 37.4 °F 71% 30.02 in 6.2 mi NW 18.4 mph 28.8 mph N/A Rain Light Rain
9:36 AM 46.4 °F 38.5 °F 37.4 °F 71% 30.02 in 6.2 mi NW 21.9 mph 28.8 mph N/A Rain Light Rain
9:37 AM 46.4 °F 39.0 °F 37.4 °F 71% 30.02 in 6.2 mi NW 19.6 mph 28.8 mph N/A Rain Light Rain
9:38 AM 46.4 °F 39.5 °F 37.4 °F 71% 30.02 in 6.2 mi NW 17.3 mph 28.8 mph N/A Rain Light Rain
9:39 AM 46.4 °F 39.5 °F 37.4 °F 71% 30.02 in 6.2 mi NW 17.3 mph 28.8 mph N/A Rain Light Rain
9:44 AM 46.4 °F 38.7 °F 37.4 °F 71% 30.02 in 6.2 mi NW 20.7 mph 28.8 mph N/A Rain Light Rain
9:47 AM 46.4 °F 38.7 °F 37.4 °F 71% 30.03 in 6.2 mi NW 20.7 mph 26.5 mph N/A   Overcast
9:58 AM 45.9 °F 37.6 °F 37.8 °F 73% 30.04 in 6.2 mi NW 23.0 mph 26.5 mph 0.00 in   Mostly Cloudy
10:02 AM 46.4 °F 39.2 °F 37.4 °F 71% 30.03 in 6.2 mi NW 18.4 mph 31.1 mph N/A   Mostly Cloudy
10:03 AM 46.4 °F 39.0 °F 37.4 °F 71% 30.03 in 6.2 mi NW 19.6 mph 31.1 mph N/A   Mostly Cloudy
10:04 AM 46.4 °F 39.8 °F 37.4 °F 71% 30.03 in 6.2 mi NW 16.1 mph 31.1 mph N/A Rain Light Rain
10:15 AM 46.4 °F 38.7 °F 39.2 °F 76% 30.04 in 6.2 mi NW 20.7 mph 27.6 mph N/A   Mostly Cloudy
10:18 AM 46.4 °F 38.1 °F 39.2 °F 76% 30.03 in 6.2 mi NW 24.2 mph 33.4 mph N/A Rain Light Rain
10:27 AM 46.4 °F 39.2 °F 37.4 °F 71% 30.03 in 6.2 mi NW 18.4 mph 33.4 mph N/A Rain Light Rain
10:29 AM 46.4 °F 39.5 °F 37.4 °F 71% 30.03 in 6.2 mi NW 17.3 mph 29.9 mph N/A   Mostly Cloudy
10:35 AM 48.2 °F - 39.2 °F 71% 30.04 in 6.2 mi NW 18.4 mph 24.2 mph N/A Rain Rain
10:38 AM 48.2 °F - 37.4 °F 66% 30.04 in 6.2 mi NW 17.3 mph 24.2 mph N/A Rain Light Rain
10:42 AM 46.4 °F - 39.2 °F 76% 30.04 in 6.2 mi North - - N/A Rain Light Rain
10:43 AM 46.4 °F - 39.2 °F 76% 30.04 in 6.2 mi North - - N/A   Mostly Cloudy
10:57 AM 48.2 °F - 39.2 °F 71% 30.05 in 6.2 mi NNW 19.6 mph 28.8 mph N/A   Scattered Clouds
10:58 AM 47.1 °F - 38.3 °F 71% 30.05 in - NNW 19.6 mph 28.8 mph 0.00 in   Scattered Clouds
11:16 AM 50.0 °F - 39.2 °F 66% 30.04 in 6.2 mi NNW 18.4 mph 27.6 mph N/A Rain Light Rain
11:22 AM 48.2 °F - 39.2 °F 71% 30.04 in 6.2 mi NNW 13.8 mph 26.5 mph N/A Rain Light Rain
11:24 AM 48.2 °F - 39.2 °F 71% 30.04 in 6.2 mi NNW 17.3 mph 26.5 mph N/A Rain Light Rain
11:27 AM 48.2 °F - 39.2 °F 71% 30.04 in 6.2 mi NNW 16.1 mph 27.6 mph N/A   Scattered Clouds
11:37 AM 50.0 °F - 39.2 °F 66% 30.05 in 6.2 mi NNW 18.4 mph 34.5 mph N/A   Mostly Cloudy
11:38 AM 50.0 °F - 39.2 °F 66% 30.05 in 6.2 mi NNW 19.6 mph 34.5 mph N/A Rain Light Rain
11:48 AM 50.0 °F - 39.2 °F 66% 30.05 in 6.2 mi NNW 18.4 mph 34.5 mph N/A   Mostly Cloudy
11:53 AM 50.0 °F - 39.2 °F 66% 30.05 in 6.2 mi NNW 24.2 mph 32.2 mph N/A Rain Light Rain
11:58 AM 50.4 °F - 39.0 °F 65% 30.06 in 6.2 mi NNW 21.9 mph 32.2 mph 0.01 in Rain Light Rain
11:59 AM 50.0 °F - 39.2 °F 66% 30.05 in 6.2 mi NNW 19.6 mph 32.2 mph N/A Rain Light Rain
12:04 PM 50.0 °F - 39.2 °F 66% 30.05 in 6.2 mi NNW 19.6 mph 32.2 mph N/A   Overcast
12:25 PM 50.0 °F - 39.2 °F 66% 30.05 in 6.2 mi NNW 20.7 mph 28.8 mph N/A Rain Light Rain
12:58 PM 49.3 °F - 40.5 °F 72% 30.06 in 6.2 mi NNW 17.3 mph 32.2 mph 0.01 in Rain Rain
1:01 PM 48.2 °F - 41.0 °F 76% 30.05 in 6.2 mi NNW 18.4 mph 32.2 mph N/A Rain Light Rain
1:03 PM 50.0 °F - 41.0 °F 71% 30.05 in 6.2 mi NNW 17.3 mph 31.1 mph N/A   Overcast
1:04 PM 50.0 °F - 41.0 °F 71% 30.05 in 6.2 mi NNW 18.4 mph 24.2 mph N/A   Overcast
1:17 PM 51.8 °F - 41.0 °F 67% 30.05 in 6.2 mi NW 20.7 mph 29.9 mph N/A   Mostly Cloudy
1:18 PM 51.8 °F - 41.0 °F 67% 30.05 in 6.2 mi NNW 21.9 mph 29.9 mph N/A   Mostly Cloudy
1:22 PM 51.8 °F - 41.0 °F 67% 30.05 in 6.2 mi NNW 21.9 mph 35.7 mph N/A   Mostly Cloudy
1:23 PM 51.8 °F - 41.0 °F 67% 30.05 in 6.2 mi NNW 19.6 mph 35.7 mph N/A Rain Light Rain
1:25 PM 50.0 °F - 41.0 °F 71% 30.05 in 6.2 mi NNW 23.0 mph 35.7 mph N/A Rain Light Rain
1:34 PM 50.0 °F - 41.0 °F 71% 30.05 in 6.2 mi North 19.6 mph 31.1 mph N/A Rain Light Rain
1:36 PM 50.0 °F - 41.0 °F 71% 30.05 in 6.2 mi NNW 20.7 mph 27.6 mph N/A Rain Light Rain
1:38 PM 50.0 °F - 41.0 °F 71% 30.05 in 6.2 mi NNW 18.4 mph 27.6 mph N/A   Scattered Clouds
1:40 PM 51.8 °F - 41.0 °F 67% 30.05 in 6.2 mi NNW 19.6 mph 27.6 mph N/A   Mostly Cloudy
1:41 PM 51.8 °F - 41.0 °F 67% 30.05 in 6.2 mi NNW 24.2 mph 27.6 mph N/A   Scattered Clouds
1:45 PM 51.8 °F - 41.0 °F 67% 30.05 in 6.2 mi NNW 20.7 mph 31.1 mph N/A   Mostly Cloudy
1:47 PM 53.6 °F - 42.8 °F 67% 30.05 in 6.2 mi NNW 25.3 mph 31.1 mph N/A   Mostly Cloudy
1:48 PM 53.6 °F - 41.0 °F 62% 30.05 in 6.2 mi NNW 26.5 mph 34.5 mph N/A   Mostly Cloudy
1:50 PM 53.6 °F - 41.0 °F 62% 30.04 in 6.2 mi NNW 23.0 mph 34.5 mph N/A Rain Light Rain
1:58 PM 52.2 °F - 41.0 °F 66% 30.06 in 6.2 mi NNW 24.2 mph 34.5 mph 0.01 in Rain Light Rain
2:00 PM 51.8 °F - 41.0 °F 67% 30.04 in 6.2 mi NNW 25.3 mph 33.4 mph N/A   Mostly Cloudy
2:12 PM 53.6 °F - 41.0 °F 62% 30.04 in 6.2 mi NNW 20.7 mph 29.9 mph N/A   Mostly Cloudy
2:18 PM 53.6 °F - 41.0 °F 62% 30.04 in 6.2 mi North 26.5 mph 38.0 mph N/A Rain Light Rain
2:22 PM 51.8 °F - 41.0 °F 67% 30.05 in 6.2 mi NNW 25.3 mph 38.0 mph N/A Rain Light Rain
2:28 PM 50.0 °F - 41.0 °F 71% 30.05 in 6.2 mi NNW 20.7 mph 35.7 mph N/A Rain Light Rain
2:58 PM 49.5 °F - 41.5 °F 74% 30.06 in 6.2 mi North 16.1 mph 39.1 mph 0.03 in Rain Light Rain
2:59 PM 50.0 °F - 42.8 °F 76% 30.05 in 6.2 mi North 16.1 mph 39.1 mph N/A Rain Light Rain
3:01 PM 50.0 °F - 42.8 °F 76% 30.05 in 6.2 mi North 17.3 mph 32.2 mph N/A Rain Light Rain
3:07 PM 50.0 °F - 42.8 °F 76% 30.05 in 6.2 mi North 20.7 mph 29.9 mph N/A Rain Light Rain
3:12 PM 50.0 °F - 41.0 °F 71% 30.05 in 6.2 mi North 16.1 mph 29.9 mph N/A Rain Light Rain
3:14 PM 51.8 °F - 41.0 °F 67% 30.05 in 6.2 mi North 17.3 mph 29.9 mph N/A Rain Light Rain
3:15 PM 51.8 °F - 41.0 °F 67% 30.05 in 6.2 mi North 17.3 mph 29.9 mph N/A Rain Light Rain
3:24 PM 51.8 °F - 41.0 °F 67% 30.05 in 6.2 mi NNW 18.4 mph 27.6 mph N/A Rain Light Rain
3:25 PM 51.8 °F - 41.0 °F 67% 30.05 in 6.2 mi NNW 18.4 mph 27.6 mph N/A Rain Light Rain
3:26 PM 51.8 °F - 41.0 °F 67% 30.05 in 6.2 mi NNW 20.7 mph 28.8 mph N/A   Overcast
3:43 PM 51.8 °F - 39.2 °F 62% 30.05 in 6.2 mi NNW 19.6 mph 31.1 mph N/A   Mostly Cloudy
3:51 PM 53.6 °F - 39.2 °F 58% 30.05 in 6.2 mi North 25.3 mph 36.8 mph N/A   Mostly Cloudy
3:53 PM 51.8 °F - 39.2 °F 62% 30.04 in 6.2 mi North 29.9 mph 40.3 mph N/A Rain Light Rain
3:58 PM 52.5 °F - 39.6 °F 61% 30.06 in 6.2 mi North 26.5 mph 40.3 mph 0.01 in Rain Light Rain
4:28 PM 50.0 °F - 39.2 °F 66% 30.05 in 6.2 mi NNW 19.6 mph 27.6 mph N/A   Mostly Cloudy
4:58 PM 50.0 °F - 37.9 °F 63% 30.06 in 6.2 mi NNW 18.4 mph 31.1 mph 0.00 in   Scattered Clouds
5:58 PM 48.2 °F - 38.8 °F 70% 30.07 in 6.2 mi NNW 18.4 mph 28.8 mph N/A   Partly Cloudy
6:45 PM 48.2 °F - 37.4 °F 66% 30.07 in 6.2 mi NNW 13.8 mph 27.6 mph N/A Rain Light Rain
6:50 PM 48.2 °F - 39.2 °F 71% 30.07 in 6.2 mi NNW 19.6 mph 27.6 mph N/A Rain Light Rain
6:54 PM 46.4 °F 40.1 °F 39.2 °F 76% 30.06 in 6.2 mi NNW 15.0 mph 25.3 mph N/A Rain Light Rain
6:56 PM 46.4 °F 40.1 °F 39.2 °F 76% 30.07 in 6.2 mi NNW 15.0 mph 25.3 mph N/A   Mostly Cloudy
6:58 PM 47.3 °F - 38.7 °F 72% 30.08 in 6.2 mi NNW 15.0 mph 25.3 mph 0.00 in   Mostly Cloudy
7:02 PM 46.4 °F 39.0 °F 39.2 °F 76% 30.07 in 6.2 mi NNW 19.6 mph 21.9 mph N/A   Mostly Cloudy
7:03 PM 46.4 °F 39.2 °F 39.2 °F 76% 30.06 in 6.2 mi NNW 18.4 mph 21.9 mph N/A Rain Light Rain
7:12 PM 46.4 °F 39.8 °F 39.2 °F 76% 30.06 in 6.2 mi NNW 16.1 mph 24.2 mph N/A Rain Light Rain
7:16 PM 46.4 °F 39.8 °F 39.2 °F 76% 30.07 in 6.2 mi NW 16.1 mph 24.2 mph N/A   Mostly Cloudy
7:19 PM 46.4 °F 38.7 °F 39.2 °F 76% 30.07 in 6.2 mi NNW 20.7 mph 26.5 mph N/A Rain Light Rain
7:28 PM 46.4 °F 39.2 °F 39.2 °F 76% 30.07 in 6.2 mi NNW 18.4 mph 27.6 mph N/A Rain Light Rain
7:34 PM 46.4 °F 39.8 °F 39.2 °F 76% 30.06 in 6.2 mi NNW 16.1 mph 27.6 mph N/A   Mostly Cloudy
7:40 PM 46.4 °F 39.8 °F 39.2 °F 76% 30.06 in 6.2 mi NNW 16.1 mph 23.0 mph N/A   Mostly Cloudy
7:43 PM 46.4 °F 39.2 °F 39.2 °F 76% 30.06 in 6.2 mi NNW 18.4 mph 23.0 mph N/A Rain Light Rain
7:52 PM 46.4 °F 40.1 °F 39.2 °F 76% 30.06 in 6.2 mi NNW 15.0 mph 21.9 mph N/A Rain Light Rain
7:55 PM 46.4 °F 40.1 °F 39.2 °F 76% 30.06 in 6.2 mi NNW 15.0 mph 21.9 mph N/A   Mostly Cloudy
7:58 PM 46.0 °F 39.6 °F 39.0 °F 76% 30.07 in 6.2 mi NNW 15.0 mph 21.9 mph 0.01 in   Mostly Cloudy
8:21 PM 46.4 °F 39.5 °F 39.2 °F 76% 30.05 in 6.2 mi NW 17.3 mph 21.9 mph N/A Rain Light Rain
8:25 PM 46.4 °F 39.5 °F 39.2 °F 76% 30.05 in 6.2 mi NW 17.3 mph 21.9 mph N/A Rain Light Rain
8:52 PM 46.4 °F 39.2 °F 39.2 °F 76% 30.05 in 6.2 mi NW 18.4 mph 25.3 mph N/A Rain Light Rain
8:53 PM 46.4 °F 39.2 °F 39.2 °F 76% 30.05 in 6.2 mi NW 18.4 mph 25.3 mph N/A Rain Light Rain
8:58 PM 46.2 °F 39.5 °F 38.8 °F 75% 30.05 in 6.2 mi NNW 16.1 mph 24.2 mph 0.00 in Rain Light Rain
9:05 PM 46.4 °F 39.2 °F 39.2 °F 76% 30.04 in 6.2 mi NNW 18.4 mph 24.2 mph N/A   Mostly Cloudy
9:19 PM 46.4 °F 38.5 °F 39.2 °F 76% 30.04 in 6.2 mi NNW 21.9 mph 26.5 mph N/A Rain Light Rain
9:28 PM 46.4 °F 39.5 °F 39.2 °F 76% 30.04 in 6.2 mi NNW 17.3 mph 28.8 mph N/A   Mostly Cloudy
9:32 PM 46.4 °F 39.2 °F 39.2 °F 76% 30.04 in 6.2 mi NNW 18.4 mph 24.2 mph N/A   Mostly Cloudy
9:34 PM 46.4 °F 39.8 °F 39.2 °F 76% 30.04 in 6.2 mi NNW 16.1 mph 24.2 mph N/A   Mostly Cloudy
9:36 PM 46.4 °F 39.5 °F 39.2 °F 76% 30.04 in 6.2 mi NNW 17.3 mph 24.2 mph N/A Rain Light Rain
9:52 PM 46.4 °F 40.1 °F 39.2 °F 76% 30.04 in 6.2 mi NW 15.0 mph - N/A Rain Light Rain
9:58 PM 45.9 °F 39.7 °F 38.8 °F 76% 30.05 in 6.2 mi NW 13.8 mph 21.9 mph 0.00 in Rain Light Rain
10:26 PM 44.6 °F 37.2 °F 39.2 °F 81% 30.03 in 6.2 mi NNW 17.3 mph 23.0 mph N/A Rain Light Rain
10:31 PM 44.6 °F 37.2 °F 39.2 °F 81% 30.03 in 6.2 mi NW 17.3 mph 23.0 mph N/A Rain Light Rain
10:32 PM 44.6 °F 37.2 °F 39.2 °F 81% 30.02 in 6.2 mi NW 17.3 mph 23.0 mph N/A   Overcast
10:36 PM 44.6 °F 37.8 °F 39.2 °F 81% 30.02 in 6.2 mi NNW 15.0 mph 21.9 mph N/A   Mostly Cloudy
10:40 PM 46.4 °F 40.4 °F 39.2 °F 76% 30.02 in 6.2 mi NNW 13.8 mph 21.9 mph N/A Rain Light Rain
10:58 PM 45.5 °F 39.6 °F 40.1 °F 81% 30.03 in 6.2 mi NNW 12.7 mph - 0.01 in Rain Light Rain
11:23 PM 46.4 °F 40.1 °F 41.0 °F 81% 30.01 in 6.2 mi NNW 15.0 mph 20.7 mph N/A Rain Light Rain
11:30 PM 46.4 °F 40.1 °F 41.0 °F 81% 30.01 in 6.2 mi NNW 15.0 mph 20.7 mph N/A Rain Light Rain
11:34 PM 46.4 °F 39.8 °F 41.0 °F 81% 30.01 in 6.2 mi NNW 16.1 mph 24.2 mph N/A Rain Light Rain
11:36 PM 46.4 °F 40.4 °F 41.0 °F 81% 30.01 in 6.2 mi NNW 13.8 mph 24.2 mph N/A Rain Light Rain
11:38 PM 46.4 °F 40.4 °F 41.0 °F 81% 30.00 in 6.2 mi NW 13.8 mph 24.2 mph N/A Rain Light Rain
11:39 PM 46.4 °F 40.4 °F 41.0 °F 81% 30.00 in 6.2 mi NW 13.8 mph 24.2 mph N/A Rain Light Rain
11:40 PM 46.4 °F 40.1 °F 41.0 °F 81% 30.00 in 6.2 mi NW 15.0 mph 24.2 mph N/A Rain Light Rain
11:41 PM 46.4 °F 40.1 °F 41.0 °F 81% 30.00 in 6.2 mi NNW 15.0 mph 24.2 mph N/A Rain Light Rain
11:42 PM 46.4 °F 40.4 °F 41.0 °F 81% 30.00 in 6.2 mi NNW 13.8 mph 24.2 mph N/A Rain Light Rain
11:56 PM 46.4 °F 39.8 °F 41.0 °F 81% 29.99 in 6.2 mi NNW 16.1 mph 24.2 mph N/A Rain Light Rain
11:58 PM 46.0 °F 39.6 °F 41.5 °F 84% 30.00 in 6.2 mi NNW 15.0 mph 24.2 mph 0.07 in Rain Light Rain
11:59 PM 46.4 °F 40.4 °F 41.0 °F 81% 29.99 in 6.2 mi NNW 13.8 mph 24.2 mph N/A   Overcast